Wind_Speed
16 15 14 14 12 10 8 7 5 3 1 1 3 5 7 9 9 9 9 10 9 9 10 10 10 10 10 10 9 8 7 6 5 4 4 3 3 3 3 4 4 4 4 4
18 17 17 16 14 12 10 9 8 6 4 3 3 4 5 7 8 9 9 9 9 9 10 10 10 11 10 10 9 8 7 6 5 5 4 4 3 3 3 4 4 4 5 5
20 20 19 18 16 15 13 12 11 8 6 5 4 4 5 6 7 7 8 8 8 8 10 10 11 11 11 10 9 9 8 7 6 5 5 5 4 4 4 4 5 5 6 6
23 22 21 20 19 17 16 14 13 11 9 7 6 5 4 5 6 6 6 7 8 8 10 10 11 11 10 9 9 9 8 8 7 6 6 5 5 5 4 4 4 5 5 4
24 24 23 21 20 19 18 17 15 13 12 10 8 7 5 5 6 5 5 6 8 8 8 9 10 10 10 10 9 8 8 8 8 7 6 6 5 5 5 5 5 4 4 4
26 25 24 22 22 21 20 19 18 16 15 13 11 10 6 6 5 5 5 6 7 8 8 8 9 9 10 11 9 8 8 8 7 7 6 6 6 6 5 6 5 5 5 5
28 26 25 24 24 23 23 21 20 19 17 15 12 11 8 6 5 5 5 6 7 8 8 9 9 10 11 11 10 9 8 8 7 7 7 7 7 6 5 5 6 6 6 6
29 28 27 26 25 24 24 23 22 20 19 17 15 13 10 7 6 6 6 6 7 7 8 9 9 10 11 10 10 9 9 8 8 7 7 8 8 7 7 6 6 7 7 7
30 28 28 27 26 26 25 25 23 22 20 19 17 14 11 9 7 7 7 6 7 8 9 9 9 11 10 10 9 9 9 8 8 8 8 8 8 8 7 8 7 6 7 8
31 29 29 28 28 28 26 25 25 24 22 20 18 15 12 11 9 8 7 7 8 8 9 9 10 10 10 11 10 10 10 9 8 8 8 8 8 8 7 7 7 7 7 8
32 31 29 29 29 28 27 26 25 24 23 21 19 16 13 11 10 8 8 7 7 8 9 9 10 10 10 10 10 10 11 10 9 8 9 8 8 8 8 8 8 8 8 9
32 32 31 30 30 29 28 27 26 24 23 21 20 17 14 12 11 10 9 8 7 9 9 10 11 11 11 11 10 11 11 11 10 9 9 9 9 9 9 8 8 9 9 10
33 33 32 31 31 30 29 28 26 25 24 22 21 18 16 15 13 12 11 10 10 10 9 11 12 12 11 11 11 10 11 11 10 9 9 9 9 9 9 8 8 9 10 11
33 33 32 31 30 29 28 28 27 26 25 23 22 19 18 16 15 14 13 12 11 11 12 12 12 11 11 11 11 10 10 10 10 10 11 11 10 9 9 9 9 10 10 11
34 33 32 31 31 30 29 29 29 27 26 24 21 20 18 17 16 15 14 13 12 13 13 12 13 13 12 12 11 11 10 11 11 11 11 12 11 10 9 9 10 10 11 11
34 34 32 32 31 31 31 30 29 28 26 25 23 21 18 18 17 16 15 14 14 14 14 15 15 14 13 12 12 12 11 11 12 12 12 12 11 11 11 11 11 12 12 12
33 33 33 32 31 31 32 31 30 29 27 26 24 21 20 19 17 17 17 16 16 15 15 16 15 15 14 13 11 11 11 11 12 13 13 13 12 12 12 12 12 13 13 14
34 33 33 33 32 33 31 30 30 30 29 27 25 23 22 20 18 18 18 17 16 15 15 16 14 14 14 14 12 12 12 12 13 14 13 13 13 14 14 13 14 14 14 14
35 34 34 35 34 34 32 31 30 30 30 29 27 25 23 22 21 20 19 18 17 16 16 16 16 16 16 15 14 13 12 13 14 13 14 14 15 15 14 14 15 15 15 15
37 35 35 36 36 36 33 31 31 31 30 28 27 26 25 24 23 21 20 19 18 17 17 18 17 17 16 15 14 15 15 15 15 15 15 16 16 15 15 15 15 15 16 16
37 37 36 36 37 37 34 33 32 32 30 28 27 27 26 25 23 22 21 21 20 19 19 19 18 17 16 16 15 15 15 15 16 17 17 16 16 16 16 16 16 16 17 17
39 38 37 37 38 37 35 33 33 33 30 29 28 28 28 26 25 24 24 23 22 20 20 20 19 18 18 18 18 18 16 17 17 18 18 18 17 17 17 17 17 18 18 18
40 39 38 38 37 36 35 35 34 33 32 30 29 29 28 27 27 26 25 24 23 23 22 21 20 20 20 20 20 19 19 19 19 19 18 18 18 18 18 19 19 19 19 19
42 40 39 39 38 37 36 35 35 34 32 30 30 29 28 28 28 28 27 25 24 24 24 23 22 22 21 22 22 21 21 20 20 19 19 19 19 19 19 20 20 20 20 20
41 41 40 40 38 37 36 35 34 34 33 31 30 30 31 29 28 28 27 26 26 26 25 24 24 24 24 23 24 23 22 21 21 20 20 20 20 20 20 20 21 21 20 21
40 41 41 41 39 38 37 35 35 33 33 32 31 30 30 30 29 29 29 28 26 25 25 25 25 24 24 24 24 24 23 22 22 21 21 21 21 21 21 21 22 21 22 22
Wind_Direction
215 216 217 218 222 227 229 231 242 260 315 19 24 22 16 11 13 11 12 13 15 15 18 20 20 18 15 15 17 20 18 18 14 2 355 358 348 328 316 320 308 305 295 271
215 215 219 220 224 227 230 236 244 254 263 294 338 358 4 3 5 6 5 7 7 13 17 15 14 11 9 8 5 8 10 11 13 8 2 355 339 320 303 306 302 298 278 268
217 217 220 221 224 225 230 239 246 254 262 275 303 331 348 358 359 0 359 3 7 12 11 9 6 3 3 2 359 357 359 1 4 1 349 341 334 321 305 296 289 285 281 273
218 219 220 222 224 225 231 240 245 252 259 266 282 303 329 345 355 357 355 358 3 4 5 4 1 357 356 356 355 357 357 354 353 351 344 338 331 324 312 302 291 283 288 284
220 221 222 223 226 227 230 238 246 250 254 262 275 284 302 322 342 349 345 344 349 353 357 2 3 1 360 358 355 356 352 351 349 348 344 340 334 325 317 307 300 290 286 287
221 222 223 224 226 227 230 236 244 249 252 259 272 281 288 305 319 327 324 330 341 342 345 352 357 2 1 355 354 354 352 350 348 346 343 335 330 325 313 308 301 295 286 278
222 222 223 224 226 228 230 235 240 246 252 258 265 274 282 285 296 311 314 323 331 334 336 341 345 350 352 352 352 354 353 348 342 338 336 329 321 314 312 312 303 299 288 278
223 223 223 224 227 231 233 236 240 246 253 256 261 268 275 274 281 298 309 316 316 329 336 335 337 341 344 344 346 350 348 343 339 334 331 326 319 312 310 309 303 298 295 285
223 223 224 224 227 231 234 236 240 244 249 254 259 264 268 268 272 287 297 305 311 317 331 333 333 334 338 341 344 343 340 342 340 338 332 327 324 321 317 309 301 296 297 289
223 222 223 225 227 230 232 234 237 241 247 252 257 259 265 264 274 277 282 294 303 309 318 326 327 328 334 340 344 342 343 345 339 333 329 326 325 328 325 314 302 298 299 298
222 222 221 224 226 229 231 232 235 240 246 251 255 257 262 267 273 275 276 289 301 308 310 317 322 325 327 333 340 338 337 340 342 337 332 326 321 322 320 313 311 309 305 305
222 221 221 223 225 227 229 232 235 239 245 250 254 256 258 265 268 271 277 285 300 311 308 308 310 313 319 326 331 330 329 331 333 331 332 334 330 325 321 314 310 312 306 302
222 222 221 222 225 227 229 231 234 237 241 247 252 255 255 260 265 270 276 283 290 304 303 305 310 312 317 323 326 322 322 323 329 333 330 329 327 322 319 316 314 312 308 303
222 223 224 225 227 228 229 232 234 236 241 247 252 254 253 256 260 268 274 279 282 292 297 301 307 314 317 320 324 322 318 319 324 332 331 328 324 319 318 318 315 312 311 309
222 223 223 223 225 227 229 232 235 238 243 247 250 254 254 256 260 266 269 274 278 284 288 292 301 307 310 315 316 314 312 316 321 325 327 326 326 323 320 317 317 316 313 312
224 224 223 222 224 226 228 231 234 237 241 245 248 252 256 255 258 262 267 270 278 284 286 291 298 301 303 308 309 309 312 313 315 318 320 323 322 319 317 319 321 320 318 315
225 225 224 224 225 227 228 229 233 237 240 244 247 251 254 256 260 262 266 270 275 282 288 294 294 296 297 300 300 301 307 310 313 314 313 315 316 317 317 317 315 316 316 314
224 225 226 226 226 228 229 230 233 237 239 243 247 249 253 255 257 258 263 270 276 280 286 292 289 294 295 294 291 295 301 308 308 309 308 309 311 313 313 313 313 313 314 313
225 226 228 228 229 231 231 232 234 237 240 244 247 249 250 251 255 259 263 269 275 277 283 289 291 289 291 291 289 291 297 301 303 305 308 310 309 310 311 310 311 311 312 312
225 227 230 231 232 233 233 234 236 238 241 243 246 249 250 251 255 260 263 267 271 274 281 286 289 291 292 295 293 293 296 298 300 305 307 308 310 307 306 308 308 309 309 308
226 229 231 233 235 235 235 236 237 239 241 243 245 248 250 251 254 256 260 264 270 273 280 283 286 289 293 295 296 296 297 298 301 303 305 306 308 306 304 306 307 307 307 306
227 230 231 233 235 236 236 238 239 241 242 244 245 246 248 249 252 255 259 263 268 272 277 282 283 285 288 291 293 295 295 296 299 300 301 300 302 303 302 304 305 305 304 303
228 230 232 233 236 238 239 239 239 240 243 245 245 245 246 248 251 256 261 261 263 270 276 280 282 284 285 288 292 293 295 293 293 294 296 297 299 300 301 303 303 303 303 303
229 230 232 234 236 238 240 240 239 240 242 243 244 245 247 250 251 254 260 261 263 268 274 277 281 283 283 285 288 290 292 290 290 292 294 296 297 297 298 300 302 302 302 303
229 231 233 234 236 238 238 240 240 241 241 242 244 246 248 250 251 253 256 260 264 267 270 273 276 278 279 282 285 286 289 289 287 289 291 293 294 295 295 297 298 298 300 302
230 232 233 234 236 239 240 241 241 240 240 241 243 246 249 250 251 253 255 258 260 263 266 270 272 274 277 280 284 285 287 286 285 287 289 291 292 293 295 296 296 295 297 298
Height
5912 5914 5915 5917 5919 5921 5922 5923 5924 5925 5925 5925 5925 5925 5925 5924 5923 5922 5921 5919 5918 5916 5915 5914 5912 5911 5909 5907 5905 5904 5903 5902 5901 5900 5899 5898 5898 5897 5897 5896 5896 5896 5896 5896
5910 5912 5914 5915 5917 5919 5921 5923 5923 5924 5925 5925 5925 5925 5925 5924 5923 5922 5921 5920 5918 5917 5915 5914 5913 5911 5909 5907 5906 5904 5903 5901 5900 5900 5899 5899 5898 5897 5896 5896 5895 5894 5894 5894
5908 5910 5911 5914 5916 5918 5920 5922 5923 5923 5924 5924 5925 5925 5925 5925 5924 5922 5921 5920 5918 5917 5916 5914 5913 5911 5909 5907 5906 5904 5903 5901 5900 5899 5898 5898 5897 5896 5896 5895 5894 5894 5893 5892
5904 5907 5909 5912 5914 5917 5919 5920 5921 5922 5923 5923 5925 5925 5925 5924 5924 5922 5922 5920 5919 5917 5916 5914 5913 5911 5909 5907 5905 5904 5903 5901 5900 5899 5898 5897 5896 5895 5895 5894 5893 5892 5892 5891
5901 5904 5906 5909 5912 5915 5917 5918 5920 5921 5922 5923 5923 5924 5925 5923 5923 5923 5922 5920 5919 5917 5916 5914 5912 5910 5908 5907 5905 5904 5902 5901 5900 5898 5897 5896 5895 5895 5894 5893 5892 5892 5891 5891
5897 5900 5903 5907 5910 5912 5914 5916 5917 5919 5920 5921 5922 5923 5923 5923 5922 5922 5921 5920 5918 5917 5915 5914 5912 5911 5909 5907 5905 5903 5902 5900 5899 5898 5897 5896 5895 5894 5893 5892 5892 5891 5891 5890
5893 5896 5900 5903 5906 5908 5911 5914 5915 5916 5917 5919 5920 5920 5922 5922 5921 5921 5920 5919 5918 5917 5915 5914 5913 5911 5909 5907 5905 5903 5901 5900 5899 5897 5896 5895 5894 5893 5892 5891 5891 5890 5890 5889
5888 5893 5896 5899 5902 5905 5907 5910 5913 5915 5916 5917 5918 5918 5921 5920 5920 5920 5919 5919 5917 5916 5915 5914 5912 5911 5909 5907 5905 5903 5901 5899 5898 5896 5895 5894 5893 5892 5891 5890 5889 5889 5888 5888
5884 5889 5892 5896 5898 5901 5904 5906 5909 5911 5912 5914 5915 5917 5918 5918 5919 5919 5918 5917 5916 5915 5914 5913 5912 5911 5909 5906 5904 5902 5900 5899 5897 5896 5894 5893 5892 5890 5889 5889 5888 5887 5887 5886
5879 5884 5887 5891 5894 5897 5900 5903 5905 5907 5909 5911 5913 5914 5916 5916 5917 5917 5917 5916 5915 5914 5913 5912 5911 5910 5908 5906 5904 5902 5900 5898 5896 5895 5893 5892 5891 5889 5888 5887 5886 5886 5885 5884
5873 5878 5883 5886 5889 5892 5896 5899 5901 5903 5906 5908 5909 5913 5914 5914 5914 5915 5915 5914 5914 5913 5912 5911 5910 5908 5907 5905 5903 5901 5900 5898 5895 5893 5892 5890 5889 5888 5887 5886 5885 5884 5883 5882
5868 5873 5877 5881 5885 5887 5891 5894 5897 5900 5902 5904 5906 5912 5911 5911 5912 5912 5912 5913 5912 5911 5910 5909 5908 5907 5905 5904 5902 5900 5899 5897 5895 5892 5891 5889 5888 5887 5885 5884 5883 5882 5881 5880
5862 5867 5872 5876 5881 5883 5886 5890 5893 5896 5898 5900 5902 5908 5907 5908 5909 5910 5910 5910 5910 5909 5908 5907 5906 5905 5903 5902 5900 5899 5898 5896 5894 5892 5890 5888 5887 5885 5884 5883 5882 5880 5879 5878
5857 5862 5868 5873 5876 5879 5882 5886 5889 5892 5894 5896 5899 5902 5904 5905 5906 5907 5907 5908 5908 5907 5906 5905 5904 5902 5901 5899 5898 5897 5896 5895 5893 5891 5889 5887 5885 5883 5882 5881 5880 5878 5877 5876
5851 5856 5862 5867 5871 5874 5878 5881 5884 5887 5890 5893 5895 5897 5900 5901 5903 5904 5904 5905 5905 5904 5904 5903 5902 5900 5899 5898 5897 5895 5894 5893 5891 5890 5887 5885 5884 5882 5880 5879 5878 5876 5875 5873
5846 5851 5856 5861 5865 5869 5872 5876 5879 5882 5885 5888 5890 5893 5895 5897 5898 5900 5901 5902 5902 5901 5901 5900 5898 5897 5896 5895 5894 5893 5892 5891 5889 5888 5886 5884 5882 5880 5878 5877 5876 5874 5873 5871
5840 5846 5851 5855 5859 5863 5866 5871 5874 5877 5880 5883 5886 5890 5891 5893 5895 5896 5897 5898 5898 5898 5897 5896 5894 5894 5893 5892 5891 5890 5889 5888 5887 5885 5883 5882 5880 5879 5877 5875 5874 5872 5870 5868
5835 5840 5845 5849 5854 5857 5864 5866 5869 5872 5875 5879 5881 5884 5886 5888 5890 5892 5893 5894 5894 5894 5893 5892 5891 5890 5890 5889 5888 5887 5886 5885 5884 5882 5881 5879 5878 5876 5874 5873 5871 5869 5867 5866
5829 5834 5838 5843 5847 5851 5856 5860 5863 5867 5870 5873 5876 5879 5881 5883 5885 5887 5888 5890 5890 5890 5889 5889 5888 5888 5887 5886 5885 5884 5883 5882 5881 5880 5878 5876 5875 5873 5872 5870 5868 5866 5864 5863
5822 5827 5832 5836 5840 5844 5851 5854 5857 5862 5864 5868 5870 5873 5876 5878 5880 5883 5884 5884 5885 5885 5885 5884 5884 5884 5883 5882 5881 5881 5879 5878 5877 5876 5875 5873 5871 5870 5868 5866 5865 5863 5861 5859
5815 5819 5824 5829 5833 5838 5844 5848 5851 5856 5860 5862 5865 5867 5870 5872 5875 5877 5878 5879 5880 5880 5880 5880 5880 5879 5879 5878 5878 5876 5875 5874 5874 5872 5871 5869 5868 5866 5864 5863 5861 5859 5858 5856
5807 5812 5817 5821 5826 5833 5837 5841 5845 5849 5852 5855 5858 5861 5864 5866 5869 5871 5872 5873 5874 5875 5875 5875 5875 5875 5874 5874 5873 5872 5869 5870 5869 5868 5867 5865 5863 5862 5860 5859 5857 5855 5853 5851
5799 5805 5809 5815 5821 5825 5830 5834 5838 5841 5845 5848 5851 5854 5857 5860 5863 5865 5866 5867 5868 5869 5870 5870 5870 5870 5870 5869 5868 5866 5865 5865 5865 5864 5862 5860 5859 5857 5856 5854 5852 5851 5849 5847
5792 5797 5802 5807 5812 5817 5822 5826 5830 5835 5838 5842 5844 5847 5851 5854 5856 5858 5860 5861 5862 5863 5864 5865 5865 5864 5864 5864 5863 5862 5861 5860 5859 5858 5857 5855 5854 5852 5851 5849 5847 5846 5844 5842
5784 5790 5794 5799 5805 5809 5814 5819 5823 5827 5831 5835 5838 5841 5843 5846 5849 5851 5853 5854 5856 5857 5858 5858 5859 5858 5858 5857 5857 5856 5856 5854 5853 5852 5851 5850 5848 5847 5846 5844 5842 5841 5839 5837
5777 5782 5787 5792 5798 5802 5807 5811 5815 5819 5824 5827 5830 5833 5836 5839 5841 5843 5845 5847 5848 5850 5851 5851 5852 5852 5851 5851 5850 5849 5848 5848 5847 5846 5845 5844 5843 5841 5840 5838 5837 5835 5833 5831